[[{"header":{"parameterUnit":"m.s-1","parameterCategory":1,"la1":30.2991,"la2":30.254,"lo1":-89.0895,"lo2":-89.0444,"dy":0.0017,"dx":0.0017,"nx":28,"ny":28,"refTime":"2024-05-14T09:00:00:Z","depth":0,"parameterNumber":2,"parameterNumberName":"U-component_of_WINDS"},"data":[0,0,0,0,0,0,0,0,0,0,0,0,0,0,0,0,0,0,0,0,0,0,0,0,0,0,0,0,0,0,0,0,0,0,0,0,0,0,0,0,0,0,0,0,0,0,0,0,0,0,0,0,0,0,0,0,0,0,2.86,2.8601,0,2.8693,2.8694,2.8695,2.8647,2.8645,2.8642,2.864,2.8741,2.8745,2.875,0,0,0,0,0,0,0,0,0,0,0,0,0,2.8387,2.8391,2.86,2.8601,2.8602,2.8693,2.8694,2.8695,2.8648,2.8645,2.8642,2.8639,2.8739,2.8745,2.8751,0,0,0,0,0,0,0,0,0,0,0,0,0,2.848,2.8392,2.86,2.8589,2.8589,2.8692,2.8694,2.8695,2.8648,2.8645,2.8641,2.8637,2.8737,2.8744,2.8752,2.8872,0,0,2.8774,2.8778,0,0,0,0,0,0,0,0,2.8474,2.8488,2.859,2.859,2.859,2.8654,2.8655,2.8755,2.8649,2.8626,2.864,2.8636,2.8715,2.8724,2.875,2.8877,2.8881,2.8775,2.878,2.8783,2.8785,0,0,0,0,0,0,0,2.8468,2.8483,2.8637,2.8591,2.8592,2.8582,2.8591,2.8674,2.8691,2.8628,2.8624,2.8636,2.8715,2.8743,2.8752,2.8882,2.8775,2.8781,2.8786,2.8789,2.9114,2.9118,0,0,0,0,0,0,2.8461,2.8478,2.8634,2.864,2.8522,2.8589,2.8599,2.8638,2.8689,2.8694,2.8639,2.8633,2.8732,2.8743,2.8755,2.89,2.8783,2.879,2.8794,2.9109,2.9115,2.9119,0,0,0,0,0,0,2.8457,2.8476,2.863,2.8558,2.8577,2.8596,2.864,2.8642,2.8669,2.8698,2.8701,2.8664,2.8729,2.8745,2.8843,2.8903,2.8793,2.88,2.9105,2.9111,2.9117,2.9191,0,0,0,0,0,0,2.8451,2.8474,2.8519,2.8559,2.8581,2.8715,2.8644,2.8646,2.8682,2.8675,2.8722,2.8727,2.8728,2.8832,2.8851,2.8911,2.8806,2.9099,2.9107,2.9115,2.9183,2.9199,2.9212,0,0,0,0,0,2.8444,2.8537,2.8522,2.8541,2.8637,2.8718,2.8731,2.8728,2.8687,2.8733,2.8751,2.8725,2.8893,2.8843,2.8863,2.8927,2.9096,2.9105,2.9114,2.9176,2.9195,2.9212,0,0,0,0,0,0,2.8505,2.8542,2.8525,2.8634,2.8673,2.871,2.8768,2.8749,2.8802,2.8794,2.879,2.8801,2.8903,2.8925,2.8868,2.9047,2.8988,2.9002,2.9029,2.9047,2.9061,2.9054,2.8812,0,0,0,0,0,2.8531,2.8593,2.8622,2.8716,2.8736,2.8749,2.8784,2.8779,2.882,2.8837,2.8862,2.8904,2.8967,2.9008,2.9067,2.9186,2.9196,2.924,2.9254,2.9266,2.9278,2.9344,2.9364,2.915,2.9149,2.9149,0,0,2.8586,2.8614,2.8653,2.8729,2.8758,2.8824,2.8763,2.8835,2.8884,2.8848,2.8942,2.8962,2.901,2.9119,2.9168,2.914,2.934,2.9278,2.9287,2.9293,2.9355,2.9376,2.9394,2.9156,2.9155,2.9154,0,0,2.872,2.8746,2.8827,2.8858,2.8903,2.8911,2.893,2.897,2.8981,2.9075,2.905,2.9109,2.9217,2.9251,2.9283,2.943,2.9409,2.945,2.9526,2.959,2.9606,2.9621,2.9675,2.9694,2.9462,2.9462,2.9462,0,2.8783,2.8878,2.8872,2.8945,2.898,2.8949,2.9032,2.9063,2.9125,2.9151,2.9118,2.9252,2.9281,2.9399,2.9434,2.9461,2.9484,2.9444,2.9604,2.9619,2.9633,2.9684,2.9704,2.9466,2.9466,2.9465,2.9465,0,2.8954,2.9021,2.9081,2.9141,2.9182,2.926,2.9267,2.931,2.9302,2.9313,2.941,2.9444,2.951,2.9537,2.953,2.9654,2.9635,2.9603,2.9545,2.9658,2.9706,2.9725,2.9473,2.9471,2.947,2.9469,0,0,2.913,2.9184,2.9206,2.9233,2.928,2.9333,2.941,2.9472,2.951,2.9555,2.962,2.9712,2.9682,2.9719,2.9715,2.9771,2.9886,2.9733,2.9734,2.9761,3.0027,3.0051,3.0073,2.9872,2.9876,2.9879,3.0023,0,2.9267,2.9399,2.9396,2.9521,2.9583,2.9555,2.9622,2.966,2.9673,2.9729,2.9745,2.981,2.9766,2.9788,2.9842,2.9861,2.994,2.985,2.9935,2.9938,2.9925,3.0098,3.0124,3.0258,3.0041,3.0044,3.0047,0,2.9444,2.9493,2.9623,2.9662,2.9688,2.9748,2.9805,2.9859,2.9902,2.9907,2.9948,2.9936,3.0016,2.9955,3.0066,3.0006,3.004,3.0055,3.006,3.0069,3.0,3.0112,3.03,3.0321,3.0076,3.0074,3.0072,0,2.956,2.9658,2.9749,2.9773,2.982,2.9863,2.9885,2.9923,2.9961,3.0012,3.0037,3.0097,3.013,3.0178,3.0183,3.0138,3.0296,3.0235,3.0305,3.0305,3.034,3.0338,3.0537,3.0361,3.0361,3.0361,3.036,0,2.9714,2.9795,2.9801,2.9857,2.9948,2.9944,3.0034,3.0052,3.0087,3.0147,3.0127,3.0185,3.0188,3.0247,3.0252,3.0344,3.036,3.0368,3.0368,3.037,3.0369,3.0393,3.0385,3.0366,3.0365,3.0364,3.0363,0,2.9859,2.9866,2.9963,2.9999,3.001,3.0075,3.0107,3.0161,3.0172,3.0249,3.0267,3.0286,3.0355,3.0364,3.0446,3.0449,3.056,3.0551,3.0545,3.0544,3.0614,3.0607,3.0836,3.0867,3.067,3.0672,3.0674,0,2.9956,3.0018,3.006,3.0098,3.0122,3.0184,3.0222,3.0221,3.0262,3.0315,3.0363,3.043,3.0483,3.0595,3.0617,3.068,3.0672,3.0748,3.0681,3.0681,3.0674,3.0671,3.0677,3.0761,3.0763,3.0765,3.0766,0,3.013,3.013,3.0185,3.0242,3.0287,3.0332,3.0374,3.0407,3.0412,3.0459,3.0528,3.0569,3.0652,3.0719,3.0781,3.0805,3.0788,3.0787,3.0806,3.0809,3.0804,3.0808,3.0581,3.0782,3.078,3.0779,3.0778,3.0778,3.0255,3.0308,3.0346,3.0408,3.0439,3.0479,3.0532,3.0549,3.0606,3.0672,3.0668,3.0745,3.0787,3.0868,3.0897,3.0958,3.0934,3.0962,3.097,3.0977,3.0984,3.0793,3.097,3.0969,3.0969,3.0969,3.0968,0,3.0428,3.045,3.0507,3.0566,3.0615,3.0592,3.0638,3.0681,3.0748,3.0788,3.084,3.0921,3.0986,3.1012,3.1077,3.1121,3.1114,3.1138,3.1135,3.1141,3.1002,3.0979,3.1142,3.1142,3.1142,3.1142,3.1142,3.1142,3.0523,3.0613,3.0618,3.0723,3.0746,3.0819,3.0848,3.0885,3.0917,3.1007,3.106,3.1076,3.1111,3.1178,3.1237,3.1244,3.1269,3.1296,3.1299,3.1169,3.1151,3.1134,3.1113,3.1301,3.1302,3.1434,3.1435,3.1436]},{"header":{"parameterUnit":"m.s-1","parameterCategory":1,"la1":30.2991,"la2":30.254,"lo1":-89.0895,"lo2":-89.0444,"dy":0.0017,"dx":0.0017,"nx":28,"ny":28,"refTime":"2024-05-14T09:00:00:Z","depth":0,"parameterNumber":3,"parameterNumberName":"V-component_of_WINDS"},"data":[0,0,0,0,0,0,0,0,0,0,0,0,0,0,0,0,0,0,0,0,0,0,0,0,0,0,0,0,0,0,0,0,0,0,0,0,0,0,0,0,0,0,0,0,0,0,0,0,0,0,0,0,0,0,0,0,0,0,-0.826,-0.826,0,-0.8283,-0.8283,-0.8283,-0.8297,-0.8298,-0.8298,-0.8298,-0.8321,-0.8321,-0.8322,0,0,0,0,0,0,0,0,0,0,0,0,0,-0.8227,-0.8228,-0.826,-0.826,-0.826,-0.8283,-0.8283,-0.8283,-0.8297,-0.8298,-0.8298,-0.8298,-0.832,-0.8321,-0.8322,0,0,0,0,0,0,0,0,0,0,0,0,0,-0.8245,-0.8228,-0.826,-0.827,-0.8271,-0.8283,-0.8283,-0.8283,-0.8297,-0.8298,-0.8298,-0.8298,-0.832,-0.8321,-0.8322,-0.8324,0,0,-0.8324,-0.8325,0,0,0,0,0,0,0,0,-0.8244,-0.8246,-0.8268,-0.8269,-0.8271,-0.8287,-0.828,-0.8297,-0.8297,-0.8287,-0.8298,-0.8298,-0.8309,-0.8311,-0.8315,-0.8326,-0.8327,-0.8324,-0.8325,-0.8325,-0.8325,0,0,0,0,0,0,0,-0.8243,-0.8245,-0.8269,-0.8269,-0.827,-0.8273,-0.8276,-0.8283,-0.8297,-0.8288,-0.8289,-0.8292,-0.831,-0.8314,-0.8316,-0.8327,-0.8324,-0.8325,-0.8326,-0.8326,-0.8341,-0.8341,0,0,0,0,0,0,-0.824,-0.8244,-0.8268,-0.827,-0.8257,-0.8274,-0.8277,-0.8282,-0.8297,-0.83,-0.8292,-0.8293,-0.8313,-0.8315,-0.8317,-0.8321,-0.8325,-0.8326,-0.8326,-0.8341,-0.8341,-0.8341,0,0,0,0,0,0,-0.8239,-0.8242,-0.8267,-0.8257,-0.8261,-0.8274,-0.828,-0.8282,-0.8287,-0.83,-0.8303,-0.8294,-0.8313,-0.8316,-0.8323,-0.8322,-0.8326,-0.8327,-0.8341,-0.8341,-0.8341,-0.8329,0,0,0,0,0,0,-0.8238,-0.8242,-0.8243,-0.8257,-0.8261,-0.8273,-0.828,-0.8283,-0.8288,-0.8289,-0.8302,-0.8305,-0.8313,-0.8321,-0.8323,-0.8323,-0.8328,-0.8341,-0.8341,-0.8341,-0.833,-0.8329,-0.8328,0,0,0,0,0,-0.8237,-0.8239,-0.8243,-0.8246,-0.8263,-0.8273,-0.8275,-0.8285,-0.8288,-0.8289,-0.8298,-0.8304,-0.8322,-0.8322,-0.8324,-0.8324,-0.8341,-0.8341,-0.8341,-0.833,-0.8329,-0.8328,0,0,0,0,0,0,-0.8224,-0.8241,-0.8246,-0.8252,-0.8261,-0.8275,-0.8277,-0.8283,-0.8291,-0.8292,-0.8304,-0.8307,-0.8313,-0.8319,-0.8319,-0.8328,-0.8332,-0.8332,-0.8323,-0.8322,-0.8321,-0.8319,-0.8328,0,0,0,0,0,-0.8221,-0.8228,-0.8242,-0.8246,-0.8251,-0.8263,-0.8268,-0.8275,-0.8284,-0.8288,-0.8297,-0.8306,-0.8314,-0.8318,-0.8326,-0.8331,-0.8334,-0.8332,-0.8331,-0.833,-0.833,-0.8333,-0.8333,-0.834,-0.834,-0.834,0,0,-0.8217,-0.8227,-0.823,-0.8244,-0.8252,-0.8258,-0.8266,-0.8273,-0.8277,-0.8289,-0.8296,-0.8303,-0.8314,-0.832,-0.8323,-0.8326,-0.8329,-0.833,-0.8329,-0.833,-0.8333,-0.8332,-0.8332,-0.834,-0.834,-0.834,0,0,-0.8212,-0.822,-0.8224,-0.8232,-0.8244,-0.8252,-0.8253,-0.8267,-0.8272,-0.8279,-0.8288,-0.8294,-0.8307,-0.8314,-0.8319,-0.8317,-0.8323,-0.8319,-0.8314,-0.8317,-0.8317,-0.8316,-0.8315,-0.8315,-0.8319,-0.8319,-0.8319,0,-0.8204,-0.8214,-0.8226,-0.8232,-0.8237,-0.8249,-0.8253,-0.826,-0.8273,-0.8277,-0.828,-0.8296,-0.8304,-0.8312,-0.8311,-0.8315,-0.8317,-0.8318,-0.8316,-0.8316,-0.8315,-0.8315,-0.8314,-0.8319,-0.8319,-0.8319,-0.8319,0,-0.8205,-0.8212,-0.8214,-0.8227,-0.8233,-0.8238,-0.825,-0.8255,-0.8261,-0.8269,-0.8276,-0.8287,-0.8297,-0.8299,-0.8305,-0.8308,-0.8309,-0.8314,-0.8318,-0.8314,-0.8313,-0.8313,-0.8318,-0.8318,-0.8318,-0.8319,0,0,-0.8191,-0.8211,-0.8211,-0.8217,-0.8231,-0.8237,-0.8243,-0.8252,-0.8256,-0.8265,-0.827,-0.8281,-0.8285,-0.8291,-0.8299,-0.8301,-0.8299,-0.8306,-0.8306,-0.8304,-0.8302,-0.8298,-0.8298,-0.8303,-0.8303,-0.8303,-0.8301,0,-0.8188,-0.8199,-0.8209,-0.8216,-0.8223,-0.8234,-0.8239,-0.8248,-0.8255,-0.8262,-0.827,-0.8277,-0.8283,-0.8287,-0.829,-0.8299,-0.8299,-0.8299,-0.8308,-0.8308,-0.8304,-0.8297,-0.8293,-0.8291,-0.8301,-0.8301,-0.8301,0,-0.8185,-0.8194,-0.8202,-0.8215,-0.8218,-0.8223,-0.8233,-0.8239,-0.8249,-0.8255,-0.8262,-0.827,-0.8276,-0.828,-0.8289,-0.8289,-0.8294,-0.8299,-0.8299,-0.83,-0.8304,-0.8298,-0.829,-0.8289,-0.8301,-0.8301,-0.8301,0,-0.8174,-0.8188,-0.8195,-0.8199,-0.8215,-0.8218,-0.8225,-0.8236,-0.8241,-0.825,-0.8253,-0.8263,-0.8268,-0.8275,-0.8285,-0.8287,-0.8293,-0.8298,-0.8297,-0.8297,-0.8297,-0.8297,-0.829,-0.8301,-0.8301,-0.8301,-0.8301,0,-0.8169,-0.8173,-0.819,-0.8194,-0.8199,-0.8211,-0.8215,-0.8223,-0.8233,-0.8238,-0.8248,-0.8253,-0.8267,-0.8273,-0.8281,-0.8287,-0.829,-0.8294,-0.8296,-0.8293,-0.8292,-0.8295,-0.8296,-0.8301,-0.8301,-0.8301,-0.8301,0,-0.8157,-0.8169,-0.8176,-0.8191,-0.8195,-0.8198,-0.821,-0.8215,-0.8223,-0.823,-0.8232,-0.8245,-0.8254,-0.8265,-0.8276,-0.8282,-0.8287,-0.829,-0.8283,-0.8284,-0.8283,-0.8283,-0.8277,-0.8277,-0.8288,-0.8288,-0.8288,0,-0.8153,-0.8157,-0.8172,-0.8176,-0.8183,-0.819,-0.8196,-0.8208,-0.8213,-0.8226,-0.8228,-0.8238,-0.8245,-0.8258,-0.8268,-0.8277,-0.8281,-0.8278,-0.8282,-0.8279,-0.8281,-0.828,-0.828,-0.8277,-0.8277,-0.8277,-0.8277,0,-0.8144,-0.815,-0.8158,-0.8167,-0.8174,-0.8182,-0.8191,-0.8194,-0.8208,-0.8214,-0.8222,-0.8229,-0.8241,-0.8249,-0.826,-0.8267,-0.8274,-0.8276,-0.8276,-0.8272,-0.8268,-0.827,-0.828,-0.8275,-0.8276,-0.8276,-0.8276,-0.8276,-0.8136,-0.8139,-0.8151,-0.8159,-0.8167,-0.8175,-0.818,-0.8189,-0.8197,-0.8208,-0.8214,-0.8223,-0.8234,-0.8248,-0.8255,-0.8262,-0.8265,-0.8265,-0.8265,-0.8265,-0.8264,-0.8267,-0.8264,-0.8264,-0.8264,-0.8264,-0.8264,0,-0.8127,-0.8135,-0.8143,-0.8155,-0.8162,-0.8168,-0.8179,-0.8184,-0.8191,-0.82,-0.8208,-0.8218,-0.8227,-0.8238,-0.8248,-0.8251,-0.8255,-0.8253,-0.8253,-0.8254,-0.8261,-0.8259,-0.825,-0.825,-0.825,-0.825,-0.825,-0.825,-0.8123,-0.813,-0.8137,-0.8148,-0.8156,-0.8164,-0.8169,-0.8177,-0.8184,-0.8195,-0.8203,-0.821,-0.8221,-0.8231,-0.8239,-0.8243,-0.8245,-0.8243,-0.8247,-0.8253,-0.8254,-0.8255,-0.8254,-0.8243,-0.8243,-0.824,-0.824,-0.824]}]]